Year,Month,Day,Hour,Minute,Value (Times are PST for temperature in C)
2019,08,03,00,00,15.10
2019,08,03,00,01,15.10
2019,08,03,00,02,15.10
2019,08,03,00,03,15.10
2019,08,03,00,04,15.00
2019,08,03,00,05,15.00
2019,08,03,00,06,15.00
2019,08,03,00,07,14.90
2019,08,03,00,08,14.90
2019,08,03,00,09,14.90
2019,08,03,00,10,14.90
2019,08,03,00,11,14.90
2019,08,03,00,12,14.90
2019,08,03,00,13,14.90
2019,08,03,00,14,14.90
2019,08,03,00,15,14.80
2019,08,03,00,16,14.80
2019,08,03,00,17,14.80
2019,08,03,00,18,14.80
2019,08,03,00,19,14.80
2019,08,03,00,20,14.80
2019,08,03,00,21,14.80
2019,08,03,00,22,14.80
2019,08,03,00,23,14.80
2019,08,03,00,24,14.80
2019,08,03,00,25,14.80
2019,08,03,00,26,14.80
2019,08,03,00,27,14.80
2019,08,03,00,28,14.80
2019,08,03,00,29,14.80
2019,08,03,00,30,14.80
2019,08,03,00,31,14.80
2019,08,03,00,32,14.80
2019,08,03,00,33,14.80
2019,08,03,00,34,14.80
2019,08,03,00,35,14.70
2019,08,03,00,36,14.80
2019,08,03,00,37,14.80
2019,08,03,00,38,14.80
2019,08,03,00,39,14.70
2019,08,03,00,40,14.70
2019,08,03,00,41,14.80
2019,08,03,00,42,14.80
2019,08,03,00,43,14.80
2019,08,03,00,44,14.70
2019,08,03,00,45,14.80
2019,08,03,00,46,14.80
2019,08,03,00,47,14.80
2019,08,03,00,48,14.70
2019,08,03,00,49,14.70
2019,08,03,00,50,14.70
2019,08,03,00,51,14.70
2019,08,03,00,52,14.70
2019,08,03,00,53,14.70
2019,08,03,00,54,14.70
2019,08,03,00,55,14.70
2019,08,03,00,56,14.70
2019,08,03,00,57,14.70
2019,08,03,00,58,14.70
2019,08,03,00,59,14.70
2019,08,03,01,00,14.70
2019,08,03,01,01,14.70
2019,08,03,01,02,14.70
2019,08,03,01,03,14.70
2019,08,03,01,04,14.70
2019,08,03,01,05,14.70
2019,08,03,01,06,14.70
2019,08,03,01,07,14.70
2019,08,03,01,08,14.70
2019,08,03,01,09,14.70
2019,08,03,01,10,14.70
2019,08,03,01,11,14.70
2019,08,03,01,12,14.60
2019,08,03,01,13,14.60
2019,08,03,01,14,14.60
2019,08,03,01,15,14.60
2019,08,03,01,16,14.60
2019,08,03,01,17,14.60
2019,08,03,01,18,14.60
2019,08,03,01,19,14.60
2019,08,03,01,20,14.50
2019,08,03,01,21,14.50
2019,08,03,01,22,14.50
2019,08,03,01,23,14.40
2019,08,03,01,24,14.40
2019,08,03,01,25,14.40
2019,08,03,01,26,14.40
2019,08,03,01,27,14.30
2019,08,03,01,28,14.30
2019,08,03,01,29,14.30
2019,08,03,01,30,14.30
2019,08,03,01,31,14.30
2019,08,03,01,32,14.30
2019,08,03,01,33,14.30
2019,08,03,01,34,14.20
2019,08,03,01,35,14.20
2019,08,03,01,36,14.20
2019,08,03,01,37,14.10
2019,08,03,01,38,14.10
2019,08,03,01,39,14.10
2019,08,03,01,40,14.10
2019,08,03,01,41,14.10
2019,08,03,01,42,14.00
2019,08,03,01,43,14.00
2019,08,03,01,44,13.90
2019,08,03,01,45,13.90
2019,08,03,01,46,13.90
2019,08,03,01,47,13.90
2019,08,03,01,48,13.90
2019,08,03,01,49,13.80
2019,08,03,01,50,13.80
2019,08,03,01,51,13.80
2019,08,03,01,52,13.80
2019,08,03,01,53,13.80
2019,08,03,01,54,13.70
2019,08,03,01,55,13.70
2019,08,03,01,56,13.70
2019,08,03,01,57,13.70
2019,08,03,01,58,13.70
2019,08,03,01,59,13.70
2019,08,03,02,00,13.60
2019,08,03,02,01,13.60
2019,08,03,02,02,13.60
2019,08,03,02,03,13.60
2019,08,03,02,04,13.60
2019,08,03,02,05,13.60
2019,08,03,02,06,13.50
2019,08,03,02,07,13.50
2019,08,03,02,08,13.50
2019,08,03,02,09,13.40
2019,08,03,02,10,13.40
2019,08,03,02,11,13.40
2019,08,03,02,12,13.40
2019,08,03,02,13,13.30
2019,08,03,02,14,13.30
2019,08,03,02,15,13.30
2019,08,03,02,16,13.30
2019,08,03,02,17,13.30
2019,08,03,02,18,13.20
2019,08,03,02,19,13.20
2019,08,03,02,20,13.20
2019,08,03,02,21,13.20
2019,08,03,02,22,13.20
2019,08,03,02,23,13.20
2019,08,03,02,24,13.10
2019,08,03,02,25,13.10
2019,08,03,02,26,13.10
2019,08,03,02,27,13.10
2019,08,03,02,28,13.10
2019,08,03,02,29,13.10
2019,08,03,02,30,13.10
2019,08,03,02,31,13.10
2019,08,03,02,32,13.10
2019,08,03,02,33,13.10
2019,08,03,02,34,13.10
2019,08,03,02,35,13.10
2019,08,03,02,36,13.00
2019,08,03,02,37,13.00
2019,08,03,02,38,13.00
2019,08,03,02,39,13.00
2019,08,03,02,40,13.00
2019,08,03,02,41,13.00
2019,08,03,02,42,13.00
2019,08,03,02,43,13.00
2019,08,03,02,44,13.10
2019,08,03,02,45,13.10
2019,08,03,02,46,13.10
2019,08,03,02,47,13.10
2019,08,03,02,48,13.10
2019,08,03,02,49,13.10
2019,08,03,02,50,13.10
2019,08,03,02,51,13.10
2019,08,03,02,52,13.10
2019,08,03,02,53,13.00
2019,08,03,02,54,13.00
2019,08,03,02,55,13.00
2019,08,03,02,56,13.00
2019,08,03,02,57,13.00
2019,08,03,02,58,13.00
2019,08,03,02,59,13.00
2019,08,03,03,00,13.00
2019,08,03,03,01,12.90
2019,08,03,03,02,12.90
2019,08,03,03,03,12.90
2019,08,03,03,04,12.90
2019,08,03,03,05,12.90
2019,08,03,03,06,12.90
2019,08,03,03,07,12.90
2019,08,03,03,08,12.90
2019,08,03,03,09,12.90
2019,08,03,03,10,12.90
2019,08,03,03,11,12.90
2019,08,03,03,12,12.90
2019,08,03,03,13,12.90
2019,08,03,03,14,12.90
2019,08,03,03,15,12.90
2019,08,03,03,16,12.90
2019,08,03,03,17,12.90
2019,08,03,03,18,12.90
2019,08,03,03,19,12.90
2019,08,03,03,20,12.90
2019,08,03,03,21,12.90
2019,08,03,03,22,12.90
2019,08,03,03,23,12.90
2019,08,03,03,24,12.90
2019,08,03,03,25,12.90
2019,08,03,03,26,12.90
2019,08,03,03,27,12.90
2019,08,03,03,28,12.90
2019,08,03,03,29,12.90
2019,08,03,03,30,12.90
2019,08,03,03,31,12.90
2019,08,03,03,32,12.90
2019,08,03,03,33,12.90
2019,08,03,03,34,12.90
2019,08,03,03,35,12.90
2019,08,03,03,36,12.90
2019,08,03,03,37,12.90
2019,08,03,03,38,12.90
2019,08,03,03,39,12.90
2019,08,03,03,40,12.90
2019,08,03,03,41,12.90
2019,08,03,03,42,12.90
2019,08,03,03,43,12.90
2019,08,03,03,44,12.90
2019,08,03,03,45,12.90
2019,08,03,03,46,12.90
2019,08,03,03,47,12.90
2019,08,03,03,48,12.90
2019,08,03,03,49,12.90
2019,08,03,03,50,12.90
2019,08,03,03,51,12.90
2019,08,03,03,52,12.90
2019,08,03,03,53,12.90
2019,08,03,03,54,13.00
2019,08,03,03,55,13.00
2019,08,03,03,56,13.00
2019,08,03,03,57,13.10
2019,08,03,03,58,13.10
2019,08,03,03,59,13.10
2019,08,03,04,00,13.10
2019,08,03,04,01,13.10
2019,08,03,04,02,13.20
2019,08,03,04,03,13.20
2019,08,03,04,04,13.20
2019,08,03,04,05,13.20
2019,08,03,04,06,13.30
2019,08,03,04,07,13.30
2019,08,03,04,08,13.30
2019,08,03,04,09,13.30
2019,08,03,04,10,13.30
2019,08,03,04,11,13.30
2019,08,03,04,12,13.30
2019,08,03,04,13,13.30
2019,08,03,04,14,13.30
2019,08,03,04,15,13.30
2019,08,03,04,16,13.30
2019,08,03,04,17,13.40
2019,08,03,04,18,13.40
2019,08,03,04,19,13.40
2019,08,03,04,20,13.40
2019,08,03,04,21,13.50
2019,08,03,04,22,13.50
2019,08,03,04,23,13.60
2019,08,03,04,24,13.60
2019,08,03,04,25,13.60
2019,08,03,04,26,13.60
2019,08,03,04,27,13.60
2019,08,03,04,28,13.70
2019,08,03,04,29,13.70
2019,08,03,04,30,13.70
2019,08,03,04,31,13.70
2019,08,03,04,32,13.70
2019,08,03,04,33,13.70
2019,08,03,04,34,13.80
2019,08,03,04,35,13.80
2019,08,03,04,36,13.80
2019,08,03,04,37,13.80
2019,08,03,04,38,13.80
2019,08,03,04,39,13.80
2019,08,03,04,40,13.80
2019,08,03,04,41,13.80
2019,08,03,04,42,13.90
2019,08,03,04,43,13.90
2019,08,03,04,44,13.90
2019,08,03,04,45,13.90
2019,08,03,04,46,13.90
2019,08,03,04,47,13.90
2019,08,03,04,48,13.90
2019,08,03,04,49,13.90
2019,08,03,04,50,13.90
2019,08,03,04,51,13.90
2019,08,03,04,52,14.00
2019,08,03,04,53,14.00
2019,08,03,04,54,14.00
2019,08,03,04,55,14.00
2019,08,03,04,56,14.00
2019,08,03,04,57,14.10
2019,08,03,04,58,14.10
2019,08,03,04,59,14.10
2019,08,03,05,00,14.10
2019,08,03,05,01,14.10
2019,08,03,05,02,14.00
2019,08,03,05,03,14.10
2019,08,03,05,04,14.10
2019,08,03,05,05,14.10
2019,08,03,05,06,14.10
2019,08,03,05,07,14.10
2019,08,03,05,08,14.10
2019,08,03,05,09,14.10
2019,08,03,05,10,14.10
2019,08,03,05,11,14.10
2019,08,03,05,12,14.20
2019,08,03,05,13,14.20
2019,08,03,05,14,14.20
2019,08,03,05,15,14.20
2019,08,03,05,16,14.20
2019,08,03,05,17,14.20
2019,08,03,05,18,14.20
2019,08,03,05,19,14.20
2019,08,03,05,20,14.20
2019,08,03,05,21,14.20
2019,08,03,05,22,14.20
2019,08,03,05,23,14.20
2019,08,03,05,24,14.20
2019,08,03,05,25,14.20
2019,08,03,05,26,14.20
2019,08,03,05,27,14.20
2019,08,03,05,28,14.20
2019,08,03,05,29,14.20
2019,08,03,05,30,14.20
2019,08,03,05,31,14.20
2019,08,03,05,32,14.20
2019,08,03,05,33,14.20
2019,08,03,05,34,14.20
2019,08,03,05,35,14.20
2019,08,03,05,36,14.20
2019,08,03,05,37,14.20
2019,08,03,05,38,14.20
2019,08,03,05,39,14.20
2019,08,03,05,40,14.20
2019,08,03,05,41,14.20
2019,08,03,05,42,14.30
2019,08,03,05,43,14.30
2019,08,03,05,44,14.30
2019,08,03,05,45,14.30
2019,08,03,05,46,14.20
2019,08,03,05,47,14.20
2019,08,03,05,48,14.20
2019,08,03,05,49,14.20
2019,08,03,05,50,14.20
2019,08,03,05,51,14.20
2019,08,03,05,52,14.20
2019,08,03,05,53,14.20
2019,08,03,05,54,14.20
2019,08,03,05,55,14.20
2019,08,03,05,56,14.20
2019,08,03,05,57,14.20
2019,08,03,05,58,14.20
2019,08,03,05,59,14.20
2019,08,03,06,00,14.20
2019,08,03,06,01,14.20
2019,08,03,06,02,14.20
2019,08,03,06,03,14.20
2019,08,03,06,04,14.20
2019,08,03,06,05,14.20
2019,08,03,06,06,14.20
2019,08,03,06,07,14.20
2019,08,03,06,08,14.20
2019,08,03,06,09,14.20
2019,08,03,06,10,14.20
2019,08,03,06,11,14.20
2019,08,03,06,12,14.10
2019,08,03,06,13,14.20
2019,08,03,06,14,14.20
2019,08,03,06,15,14.10
2019,08,03,06,16,14.20
2019,08,03,06,17,14.20
2019,08,03,06,18,14.20
2019,08,03,06,19,14.10
2019,08,03,06,20,14.10
2019,08,03,06,21,14.10
2019,08,03,06,22,14.10
2019,08,03,06,23,14.10
2019,08,03,06,24,14.10
2019,08,03,06,25,14.10
2019,08,03,06,26,14.10
2019,08,03,06,27,14.10
2019,08,03,06,28,14.10
2019,08,03,06,29,14.10
2019,08,03,06,30,14.10
2019,08,03,06,31,14.10
2019,08,03,06,32,14.10
2019,08,03,06,33,14.10
2019,08,03,06,34,14.10
2019,08,03,06,35,14.10
2019,08,03,06,36,14.10
2019,08,03,06,37,14.10
2019,08,03,06,38,14.10
2019,08,03,06,39,14.10
2019,08,03,06,40,14.10
2019,08,03,06,41,14.00
2019,08,03,06,42,14.00
2019,08,03,06,43,14.00
2019,08,03,06,44,14.00
2019,08,03,06,45,14.00
2019,08,03,06,46,14.00
2019,08,03,06,47,14.00
2019,08,03,06,48,14.00
2019,08,03,06,49,14.10
2019,08,03,06,50,14.10
2019,08,03,06,51,14.10
2019,08,03,06,52,14.10
2019,08,03,06,53,14.10
2019,08,03,06,54,14.10
2019,08,03,06,55,14.10
2019,08,03,06,56,14.10
2019,08,03,06,57,14.10
2019,08,03,06,58,14.10
2019,08,03,06,59,14.10
2019,08,03,07,00,14.10
2019,08,03,07,01,14.10
2019,08,03,07,02,14.10
2019,08,03,07,03,14.20
2019,08,03,07,04,14.20
2019,08,03,07,05,14.20
2019,08,03,07,06,14.20
2019,08,03,07,07,14.20
2019,08,03,07,08,14.20
2019,08,03,07,09,14.20
2019,08,03,07,10,14.20
2019,08,03,07,11,14.20
2019,08,03,07,12,14.20
2019,08,03,07,13,14.20
2019,08,03,07,14,14.20
2019,08,03,07,15,14.20
2019,08,03,07,16,14.20
2019,08,03,07,17,14.20
2019,08,03,07,18,14.20
2019,08,03,07,19,14.20
2019,08,03,07,20,14.20
2019,08,03,07,21,14.20
2019,08,03,07,22,14.20
2019,08,03,07,23,14.20
2019,08,03,07,24,14.20
2019,08,03,07,25,14.20
2019,08,03,07,26,14.30
2019,08,03,07,27,14.30
2019,08,03,07,28,14.30
2019,08,03,07,29,14.30
2019,08,03,07,30,14.30
2019,08,03,07,31,14.30
2019,08,03,07,32,14.30
2019,08,03,07,33,14.20
2019,08,03,07,34,14.30
2019,08,03,07,35,14.30
2019,08,03,07,36,14.30
2019,08,03,07,37,14.30
2019,08,03,07,38,14.30
2019,08,03,07,39,14.30
2019,08,03,07,40,14.30
2019,08,03,07,41,14.30
2019,08,03,07,42,14.30
2019,08,03,07,43,14.30
2019,08,03,07,44,14.30
2019,08,03,07,45,14.30
2019,08,03,07,46,14.40
2019,08,03,07,47,14.40
2019,08,03,07,48,14.40
2019,08,03,07,49,14.40
2019,08,03,07,50,14.40
2019,08,03,07,51,14.40
2019,08,03,07,52,14.40
2019,08,03,07,53,14.40
2019,08,03,07,54,14.40
2019,08,03,07,55,14.40
2019,08,03,07,56,14.40
2019,08,03,07,57,14.40
2019,08,03,07,58,14.40
2019,08,03,07,59,14.40
2019,08,03,08,00,14.40
2019,08,03,08,01,14.40
2019,08,03,08,02,14.50
2019,08,03,08,03,14.50
2019,08,03,08,04,14.50
2019,08,03,08,05,14.60
2019,08,03,08,06,14.60
2019,08,03,08,07,14.60
2019,08,03,08,08,14.60
2019,08,03,08,09,14.60
2019,08,03,08,10,14.60
2019,08,03,08,11,14.70
2019,08,03,08,12,14.70
2019,08,03,08,13,14.70
2019,08,03,08,14,14.70
2019,08,03,08,15,14.70
2019,08,03,08,16,14.70
2019,08,03,08,17,14.70
2019,08,03,08,18,14.70
2019,08,03,08,19,14.70
2019,08,03,08,20,14.70
2019,08,03,08,21,14.80
2019,08,03,08,22,14.80
2019,08,03,08,23,14.80
2019,08,03,08,24,14.80
2019,08,03,08,25,14.80
2019,08,03,08,26,14.80
2019,08,03,08,27,14.80
2019,08,03,08,28,14.90
2019,08,03,08,29,14.90
2019,08,03,08,30,14.90
2019,08,03,08,31,14.90
2019,08,03,08,32,14.90
2019,08,03,08,33,15.00
2019,08,03,08,34,15.00
2019,08,03,08,35,15.00
2019,08,03,08,36,15.00
2019,08,03,08,37,15.00
2019,08,03,08,38,15.00
2019,08,03,08,39,15.00
2019,08,03,08,40,15.10
2019,08,03,08,41,15.10
2019,08,03,08,42,15.10
2019,08,03,08,43,15.10
2019,08,03,08,44,15.10
2019,08,03,08,45,15.10
2019,08,03,08,46,15.10
2019,08,03,08,47,15.10
2019,08,03,08,48,15.10
2019,08,03,08,49,15.10
2019,08,03,08,50,15.10
2019,08,03,08,51,15.10
2019,08,03,08,52,15.10
2019,08,03,08,53,15.10
2019,08,03,08,54,15.10
2019,08,03,08,55,15.10
2019,08,03,08,56,15.10
2019,08,03,08,57,15.10
2019,08,03,08,58,15.10
2019,08,03,08,59,15.20
2019,08,03,09,00,15.20
2019,08,03,09,01,15.20
2019,08,03,09,02,15.20
2019,08,03,09,03,15.20
2019,08,03,09,04,15.20
2019,08,03,09,05,15.30
2019,08,03,09,06,15.30
2019,08,03,09,07,15.30
2019,08,03,09,08,15.30
2019,08,03,09,09,15.30
2019,08,03,09,10,15.30
2019,08,03,09,11,15.40
2019,08,03,09,12,15.40
2019,08,03,09,13,15.40
2019,08,03,09,14,15.50
2019,08,03,09,15,15.50
2019,08,03,09,16,15.50
2019,08,03,09,17,15.50
2019,08,03,09,18,15.50
2019,08,03,09,19,15.50
2019,08,03,09,20,15.60
2019,08,03,09,21,15.60
2019,08,03,09,22,15.60
2019,08,03,09,23,15.60
2019,08,03,09,24,15.60
2019,08,03,09,25,15.60
2019,08,03,09,26,15.60
2019,08,03,09,27,15.60
2019,08,03,09,28,15.60
2019,08,03,09,29,15.60
2019,08,03,09,30,15.60
2019,08,03,09,31,15.60
2019,08,03,09,32,15.60
2019,08,03,09,33,15.60
2019,08,03,09,34,15.60
2019,08,03,09,35,15.70
2019,08,03,09,36,15.70
2019,08,03,09,37,15.70
2019,08,03,09,38,15.80
2019,08,03,09,39,15.80
2019,08,03,09,40,15.90
2019,08,03,09,41,15.90
2019,08,03,09,42,15.90
2019,08,03,09,43,16.00
2019,08,03,09,44,16.00
2019,08,03,09,45,16.10
2019,08,03,09,46,16.10
2019,08,03,09,47,16.10
2019,08,03,09,48,16.10
2019,08,03,09,49,16.10
2019,08,03,09,50,16.10
2019,08,03,09,51,16.10
2019,08,03,09,52,16.10
2019,08,03,09,53,16.20
2019,08,03,09,54,16.20
2019,08,03,09,55,16.20
2019,08,03,09,56,16.20
2019,08,03,09,57,16.20
2019,08,03,09,58,16.20
2019,08,03,09,59,16.30
2019,08,03,10,00,16.30
2019,08,03,10,01,16.30
2019,08,03,10,02,16.30
2019,08,03,10,03,16.40
2019,08,03,10,04,16.40
2019,08,03,10,05,16.40
2019,08,03,10,06,16.60
2019,08,03,10,07,16.60
2019,08,03,10,08,16.60
2019,08,03,10,09,16.70
2019,08,03,10,10,16.70
2019,08,03,10,11,16.80
2019,08,03,10,12,16.80
2019,08,03,10,13,16.90
2019,08,03,10,14,16.90
2019,08,03,10,15,17.00
2019,08,03,10,16,17.10
2019,08,03,10,17,17.10
2019,08,03,10,18,17.20
2019,08,03,10,19,17.20
2019,08,03,10,20,17.30
2019,08,03,10,21,17.40
2019,08,03,10,22,17.40
2019,08,03,10,23,17.60
2019,08,03,10,24,17.60
2019,08,03,10,25,17.80
2019,08,03,10,26,17.80
2019,08,03,10,27,17.90
2019,08,03,10,28,18.10
2019,08,03,10,29,18.10
2019,08,03,10,30,18.10
2019,08,03,10,31,18.20
2019,08,03,10,32,18.20
2019,08,03,10,33,18.30
2019,08,03,10,34,18.30
2019,08,03,10,35,18.40
2019,08,03,10,36,18.40
2019,08,03,10,37,18.50
2019,08,03,10,38,18.50
2019,08,03,10,39,18.60
2019,08,03,10,40,18.60
2019,08,03,10,41,18.60
2019,08,03,10,42,18.60
2019,08,03,10,43,18.60
2019,08,03,10,44,18.60
2019,08,03,10,45,18.60
2019,08,03,10,46,18.70
2019,08,03,10,47,18.70
2019,08,03,10,48,18.70
2019,08,03,10,49,18.70
2019,08,03,10,50,18.80
2019,08,03,10,51,18.80
2019,08,03,10,52,18.90
2019,08,03,10,53,19.00
2019,08,03,10,54,19.10
2019,08,03,10,55,19.20
2019,08,03,10,56,19.20
2019,08,03,10,57,19.20
2019,08,03,10,58,19.30
2019,08,03,10,59,19.20
2019,08,03,11,00,19.30
2019,08,03,11,01,19.30
2019,08,03,11,02,19.30
2019,08,03,11,03,19.30
2019,08,03,11,04,19.20
2019,08,03,11,05,19.20
2019,08,03,11,06,19.20
2019,08,03,11,07,19.20
2019,08,03,11,08,19.20
2019,08,03,11,09,19.30
2019,08,03,11,10,19.30
2019,08,03,11,11,19.30
2019,08,03,11,12,19.40
2019,08,03,11,13,19.40
2019,08,03,11,14,19.60
2019,08,03,11,15,19.60
2019,08,03,11,16,19.70
2019,08,03,11,17,19.80
2019,08,03,11,18,19.80
2019,08,03,11,19,19.90
2019,08,03,11,20,20.00
2019,08,03,11,21,20.10
2019,08,03,11,22,20.10
2019,08,03,11,23,20.20
2019,08,03,11,24,20.20
2019,08,03,11,25,20.30
2019,08,03,11,26,20.30
2019,08,03,11,27,20.30
2019,08,03,11,28,20.40
2019,08,03,11,29,20.40
2019,08,03,11,30,20.60
2019,08,03,11,31,20.60
2019,08,03,11,32,20.70
2019,08,03,11,33,20.80
2019,08,03,11,34,20.80
2019,08,03,11,35,20.90
2019,08,03,11,36,20.90
2019,08,03,11,37,21.00
2019,08,03,11,38,21.10
2019,08,03,11,39,21.10
2019,08,03,11,40,21.10
2019,08,03,11,41,21.10
2019,08,03,11,42,21.10
2019,08,03,11,43,21.20
2019,08,03,11,44,21.20
2019,08,03,11,45,21.30
2019,08,03,11,46,21.30
2019,08,03,11,47,21.40
2019,08,03,11,48,21.40
2019,08,03,11,49,21.60
2019,08,03,11,50,21.60
2019,08,03,11,51,21.70
2019,08,03,11,52,21.70
2019,08,03,11,53,21.70
2019,08,03,11,54,21.70
2019,08,03,11,55,21.70
2019,08,03,11,56,21.70
2019,08,03,11,57,21.70
2019,08,03,11,58,21.70
2019,08,03,11,59,21.70
2019,08,03,12,00,21.80
2019,08,03,12,01,21.80
2019,08,03,12,02,21.90
2019,08,03,12,03,22.00
2019,08,03,12,04,22.10
2019,08,03,12,05,22.20
2019,08,03,12,06,22.30
2019,08,03,12,07,22.30
2019,08,03,12,08,22.40
2019,08,03,12,09,22.50
2019,08,03,12,10,22.70
2019,08,03,12,11,22.70
2019,08,03,12,12,22.70
2019,08,03,12,13,22.60
2019,08,03,12,14,22.60
2019,08,03,12,15,22.60
2019,08,03,12,16,22.70
2019,08,03,12,17,22.70
2019,08,03,12,18,22.80
2019,08,03,12,19,22.80
2019,08,03,12,20,22.90
2019,08,03,12,21,23.10
2019,08,03,12,22,23.20
2019,08,03,12,23,23.30
2019,08,03,12,24,23.30
2019,08,03,12,25,23.40
2019,08,03,12,26,23.40
2019,08,03,12,27,23.50
2019,08,03,12,28,23.60
2019,08,03,12,29,23.70
2019,08,03,12,30,23.70
2019,08,03,12,31,23.80
2019,08,03,12,32,23.70
2019,08,03,12,33,23.60
2019,08,03,12,34,23.40
2019,08,03,12,35,23.40
2019,08,03,12,36,23.40
2019,08,03,12,37,23.40
2019,08,03,12,38,23.50
2019,08,03,12,39,23.60
2019,08,03,12,40,23.70
2019,08,03,12,41,23.80
2019,08,03,12,42,23.80
2019,08,03,12,43,23.90
2019,08,03,12,44,24.00
2019,08,03,12,45,24.10
2019,08,03,12,46,24.10
2019,08,03,12,47,24.20
2019,08,03,12,48,24.20
2019,08,03,12,49,24.30
2019,08,03,12,50,24.30
2019,08,03,12,51,24.30
2019,08,03,12,52,24.20
2019,08,03,12,53,24.20
2019,08,03,12,54,24.20
2019,08,03,12,55,24.30
2019,08,03,12,56,24.30
2019,08,03,12,57,24.30
2019,08,03,12,58,24.40
2019,08,03,12,59,24.40
2019,08,03,13,00,24.60
2019,08,03,13,01,24.60
2019,08,03,13,02,24.70
2019,08,03,13,03,24.70
2019,08,03,13,04,24.80
2019,08,03,13,05,24.90
2019,08,03,13,06,25.10
2019,08,03,13,07,25.20
2019,08,03,13,08,25.30
2019,08,03,13,09,25.30
2019,08,03,13,10,25.40
2019,08,03,13,11,25.30
2019,08,03,13,12,25.30
2019,08,03,13,13,25.40
2019,08,03,13,14,25.40
2019,08,03,13,15,25.40
2019,08,03,13,16,25.40
2019,08,03,13,17,25.50
2019,08,03,13,18,25.60
2019,08,03,13,19,25.60
2019,08,03,13,20,25.60
2019,08,03,13,21,25.60
2019,08,03,13,22,25.60
2019,08,03,13,23,25.70
2019,08,03,13,24,25.80
2019,08,03,13,25,25.80
2019,08,03,13,26,25.80
2019,08,03,13,27,25.80
2019,08,03,13,28,25.80
2019,08,03,13,29,25.80
2019,08,03,13,30,25.80
2019,08,03,13,31,25.90
2019,08,03,13,32,25.90
2019,08,03,13,33,25.90
2019,08,03,13,34,25.90
2019,08,03,13,35,25.90
2019,08,03,13,36,26.00
2019,08,03,13,37,26.10
2019,08,03,13,38,26.20
2019,08,03,13,39,26.30
2019,08,03,13,40,26.40
2019,08,03,13,41,26.60
2019,08,03,13,42,26.60
2019,08,03,13,43,26.70
2019,08,03,13,44,26.80
2019,08,03,13,45,26.80
2019,08,03,13,46,26.80
2019,08,03,13,47,26.70
2019,08,03,13,48,26.70
2019,08,03,13,49,26.70
2019,08,03,13,50,26.70
2019,08,03,13,51,26.70
2019,08,03,13,52,26.80
2019,08,03,13,53,26.80
2019,08,03,13,54,26.80
2019,08,03,13,55,26.80
2019,08,03,13,56,26.90
2019,08,03,13,57,26.90
2019,08,03,13,58,26.90
2019,08,03,13,59,26.90
2019,08,03,14,00,26.80
2019,08,03,14,01,26.80
2019,08,03,14,02,26.70
2019,08,03,14,03,26.70
2019,08,03,14,04,26.70
2019,08,03,14,05,26.70
2019,08,03,14,06,26.60
2019,08,03,14,07,26.60
2019,08,03,14,08,26.60
2019,08,03,14,09,26.60
2019,08,03,14,10,26.60
2019,08,03,14,11,26.50
2019,08,03,14,12,26.60
2019,08,03,14,13,26.60
2019,08,03,14,14,26.70
2019,08,03,14,15,26.70
2019,08,03,14,16,26.80
2019,08,03,14,17,26.70
2019,08,03,14,18,26.80
2019,08,03,14,19,26.80
2019,08,03,14,20,26.80
2019,08,03,14,21,26.80
2019,08,03,14,22,26.90
2019,08,03,14,23,26.90
2019,08,03,14,24,27.00
2019,08,03,14,25,27.10
2019,08,03,14,26,27.10
2019,08,03,14,27,27.10
2019,08,03,14,28,27.10
2019,08,03,14,29,27.00
2019,08,03,14,30,26.90
2019,08,03,14,31,26.90
2019,08,03,14,32,27.00
2019,08,03,14,33,27.10
2019,08,03,14,34,27.20
2019,08,03,14,35,27.20
2019,08,03,14,36,27.30
2019,08,03,14,37,27.40
2019,08,03,14,38,27.40
2019,08,03,14,39,27.40
2019,08,03,14,40,27.40
2019,08,03,14,41,27.40
2019,08,03,14,42,27.40
2019,08,03,14,43,27.60
2019,08,03,14,44,27.60
2019,08,03,14,45,27.70
2019,08,03,14,46,27.70
2019,08,03,14,47,27.80
2019,08,03,14,48,27.80
2019,08,03,14,49,27.80
2019,08,03,14,50,27.80
2019,08,03,14,51,27.70
2019,08,03,14,52,27.70
2019,08,03,14,53,27.70
2019,08,03,14,54,27.70
2019,08,03,14,55,27.80
2019,08,03,14,56,27.80
2019,08,03,14,57,27.80
2019,08,03,14,58,27.80
2019,08,03,14,59,27.90
2019,08,03,15,00,27.90
2019,08,03,15,01,27.90
2019,08,03,15,02,28.00
2019,08,03,15,03,28.00
2019,08,03,15,04,27.90
2019,08,03,15,05,27.90
2019,08,03,15,06,27.90
2019,08,03,15,07,27.80
2019,08,03,15,08,27.70
2019,08,03,15,09,27.60
2019,08,03,15,10,27.60
2019,08,03,15,11,27.60
2019,08,03,15,12,27.70
2019,08,03,15,13,27.70
2019,08,03,15,14,27.80
2019,08,03,15,15,27.80
2019,08,03,15,16,27.90
2019,08,03,15,17,28.10
2019,08,03,15,18,28.10
2019,08,03,15,19,28.20
2019,08,03,15,20,28.30
2019,08,03,15,21,28.30
2019,08,03,15,22,28.40
2019,08,03,15,23,28.40
2019,08,03,15,24,28.50
2019,08,03,15,25,28.60
2019,08,03,15,26,28.50
2019,08,03,15,27,28.40
2019,08,03,15,28,28.30
2019,08,03,15,29,28.30
2019,08,03,15,30,28.30
2019,08,03,15,31,28.30
2019,08,03,15,32,28.30
2019,08,03,15,33,28.40
2019,08,03,15,34,28.40
2019,08,03,15,35,28.40
2019,08,03,15,36,28.30
2019,08,03,15,37,28.10
2019,08,03,15,38,28.10
2019,08,03,15,39,28.00
2019,08,03,15,40,27.90
2019,08,03,15,41,27.90
2019,08,03,15,42,27.90
2019,08,03,15,43,27.90
2019,08,03,15,44,28.10
2019,08,03,15,45,28.20
2019,08,03,15,46,28.20
2019,08,03,15,47,28.30
2019,08,03,15,48,28.40
2019,08,03,15,49,28.50
2019,08,03,15,50,28.50
2019,08,03,15,51,28.50
2019,08,03,15,52,28.60
2019,08,03,15,53,28.60
2019,08,03,15,54,28.60
2019,08,03,15,55,28.70
2019,08,03,15,56,28.70
2019,08,03,15,57,28.70
2019,08,03,15,58,28.70
2019,08,03,15,59,28.70
2019,08,03,16,00,28.80
2019,08,03,16,01,28.70
2019,08,03,16,02,28.70
2019,08,03,16,03,28.70
2019,08,03,16,04,28.70
2019,08,03,16,05,28.60
2019,08,03,16,06,28.60
2019,08,03,16,07,28.50
2019,08,03,16,08,28.40
2019,08,03,16,09,28.30
2019,08,03,16,10,28.30
2019,08,03,16,11,28.40
2019,08,03,16,12,28.50
2019,08,03,16,13,28.50
2019,08,03,16,14,28.50
2019,08,03,16,15,28.60
2019,08,03,16,16,28.60
2019,08,03,16,17,28.60
2019,08,03,16,18,28.70
2019,08,03,16,19,28.70
2019,08,03,16,20,28.80
2019,08,03,16,21,28.80
2019,08,03,16,22,28.90
2019,08,03,16,23,28.90
2019,08,03,16,24,29.00
2019,08,03,16,25,29.10
2019,08,03,16,26,29.10
2019,08,03,16,27,29.10
2019,08,03,16,28,29.10
2019,08,03,16,29,29.10
2019,08,03,16,30,29.20
2019,08,03,16,31,29.20
2019,08,03,16,32,29.20
2019,08,03,16,33,29.20
2019,08,03,16,34,29.10
2019,08,03,16,35,29.10
2019,08,03,16,36,29.10
2019,08,03,16,37,29.10
2019,08,03,16,38,29.10
2019,08,03,16,39,29.10
2019,08,03,16,40,29.10
2019,08,03,16,41,29.10
2019,08,03,16,42,29.10
2019,08,03,16,43,29.10
2019,08,03,16,44,29.10
2019,08,03,16,45,29.10
2019,08,03,16,46,29.10
2019,08,03,16,47,29.10
2019,08,03,16,48,29.10
2019,08,03,16,49,29.10
2019,08,03,16,50,29.10
2019,08,03,16,51,29.10
2019,08,03,16,52,29.00
2019,08,03,16,53,28.90
2019,08,03,16,54,28.90
2019,08,03,16,55,29.00
2019,08,03,16,56,29.10
2019,08,03,16,57,29.10
2019,08,03,16,58,29.10
2019,08,03,16,59,29.10
2019,08,03,17,00,29.20
2019,08,03,17,01,29.20
2019,08,03,17,02,29.20
2019,08,03,17,03,29.20
2019,08,03,17,04,29.20
2019,08,03,17,05,29.20
2019,08,03,17,06,29.30
2019,08,03,17,07,29.30
2019,08,03,17,08,29.40
2019,08,03,17,09,29.40
2019,08,03,17,10,29.40
2019,08,03,17,11,29.30
2019,08,03,17,12,29.30
2019,08,03,17,13,29.20
2019,08,03,17,14,29.10
2019,08,03,17,15,29.00
2019,08,03,17,16,28.90
2019,08,03,17,17,28.90
2019,08,03,17,18,28.90
2019,08,03,17,19,28.90